Location: S�deilles
(46.7500°N, 6.9329°E)
Time: 05:02:27
(UTC+00:00)

Cosmos 1869 Rocket - Pass Details

Date: 08 March 2021
Orbit: 604 x 633 km, 82.5° (Epoch: 22 April)

Event Time Altitude Azimuth Distance (km) Brightness Sun altitude
Rises 18:01:51 0° 163° (SSE) 2,867 6.8 -6.6°
Reaches altitude 10° 18:04:12 10° 154° (SSE) 1,972 5.9 -7.0°
Maximum altitude 18:08:07 33° 90° (E) 1,053 4.2 -7.6°
Drops below altitude 10° 18:12:04 10° 27° (NNE) 2,003 5.9 -8.3°
Sets 18:14:29 0° 18° (NNE) 2,920 6.9 -8.7°
